AirNav   Pilot Hours Calculator
 
 1112 users online  

MU05 Arch Heliport
St Louis, Missouri, USA

GOING TO ST LOUIS?


FAA INFORMATION EFFECTIVE 07 OCTOBER 2021

Location

FAA Identifier: MU05
Lat/Long: 38-37-30.8800N 090-12-47.7600W
38-37.514667N 090-12.796000W
38.6252444,-90.2132667
(estimated)
Elevation: 500 ft. / 152 m (estimated)
Variation: 01E (1990)
Time zone: UTC -5 (UTC -6 during Standard Time)
Zip code: 63104

Heliport Operations

Heliport use: Private use, MEDICAL USE.
Activation date: 12/1993
Control tower: no
ARTCC: KANSAS CITY CENTER
FSS: SAINT LOUIS FLIGHT SERVICE STATION
Attendance: CONTINUOUS
Wind indicator: yes
Segmented circle: no

Heliport Communications

WX ASOS at CPS (4 nm SE): PHONE 618-332-0001
WX ASOS at STL (10 nm NW): PHONE 314-890-4790
WX AWOS-3 at ALN (18 nm NE): 128.0 (618-259-7231)

Nearby radio navigation aids

VOR radial/distance  VOR name  Freq  Var
TOYr240/15.4TROY VORTAC116.0004E
STLr137/18.9ST LOUIS VORTAC117.4001E
FTZr092/35.8FORISTELL VORTAC110.8005E

 
NDB name  Hdg/Dist  Freq  Var  ID
ACORE311/9.635000ECP -.-. .--.
CIVIC MEMORIAL206/17.626301WCVM -.-. ...- --

Heliport Services

Runway Information

Helipad H1

Dimensions: 30 x 30 ft. / 9 x 9 m
Surface: concrete
Latitude: 38-37.514667N
Longitude: 090-12.796000W
Elevation: 500.0 ft.
Traffic pattern: leftleft

Heliport Ownership and Management from official FAA records

Ownership: Privately-owned
Owner: ARCH
2207 SCOTT AVE
ST LOUIS, MO 63103
Phone 314-640-3354
Manager: ROBERT GROVES
2207 SCOTT AVE
ST LOUIS, MO 63103
Phone (314) 486-2783

Additional Remarks

A52-H1 45' BLDG 250' SW.
FOR CD CTC ST LOUIS APCH AT 314-890-1018.

Instrument Procedures

There are no published instrument procedures at MU05.

Some nearby airports with instrument procedures:

KCPS - St Louis Downtown Airport (4 nm SE)
KSTL - St Louis Lambert International Airport (10 nm NW)
1H0 - Creve Coeur Airport (15 nm NW)
KALN - St Louis Regional Airport (18 nm NE)
KBLV - Scott Air Force Base/MidAmerica Airport (18 nm E)
 
Loc | Ops | Rwys | IFR | FBO | Links
Com | Nav | Svcs | Stats | Notes
Area around MU05 (Arch Heliport)
 
Road maps at: MapQuest Bing Google
 
Aerial photo
No photo
 
Sectional chart

 
Airport distance calculator
Flying to Arch Heliport? Find the distance to fly.

From to MU05

Sunrise and sunset
Times for 19-Oct-2021
 Local
(UTC-5)
 Zulu
(UTC)
Morning civil twilight06:4811:48
Sunrise07:1512:15
Sunset18:1723:17
Evening civil twilight18:4423:44

Current date and time
Zulu (UTC)  20-Oct-2021 00:47:12
Local (UTC-5)  19-Oct-2021 19:47:12
 
METAR
KCPS 
5nm SE 
192353Z 15004KT 10SM CLR 16/09 A3007 RMK AO2 SLP183 T01610094 10222 20161 53002
KSTL 
10nm NW 
192351Z 15007KT 10SM FEW190 19/07 A3007 RMK AO2 SLP179 T01940072 10228 20194 53001
KALN 
18nm NE 
192347Z 13006KT 10SM CLR 16/08 A3007
KBLV 
19nm E 
192356Z AUTO 19005KT 10SM CLR 15/09 A3007 RMK AO2 SLP186 T01530088 10218 20152 53002 $
TAF
KCPS 
5nm SE 
191720Z 1918/2018 18009KT P6SM BKN250 FM200000 15005KT P6SM SCT250 FM201700 19008G15KT P6SM BKN120
KSTL 
10nm NW 
192058Z 1921/2024 16008KT P6SM FEW200 FM200000 15007KT P6SM SCT250 FM201700 19008G15KT P6SM BKN120
KBLV 
19nm E 
191600Z 1916/2022 19010G15KT 9999 FEW250 QNH3006INS BECMG 1923/1924 17008KT 9999 SKC QNH3007INS BECMG 2008/2009 VRB06KT 6000 BR FEW100 QNH3010INS BECMG 2013/2014 16006KT 9999 NSW FEW100 QNH2997INS TX21/1920Z TN10/2012Z
NOTAMs
Click for the latest NOTAMs
NOTAMs are issued by the DoD/FAA and will open in a separate window not controlled by AirNav.

 

 
 

Would you like to see your business listed on this page?

 If your business provides an interesting product or service to pilots, flight crews, aircraft, or users of the Arch Heliport, you should consider listing it here.  To start the listing process, click on the button below
 
Add a business
 

Other Pages about Arch Heliport

members.aol.com/...
 
Update a link
 
Copyright © AirNav, LLC. All rights reserved. Privacy Policy  Contact